EZY217U EGGP-EGAC

Flight info

Callsign EZY217U
Flight time 0h 33m
Altitude 22000
Route WAL M146 ERDUV Z198 MASOP M148 MAGEE
Aircraft A319/M-SDE2E3FGIJ1RWXYZ/LB1

Departure

Time 2026-05-07 15:30
Airport Liverpool John Lennon Airport (EGGP)

Arrival

Time 2026-05-07 16:03
Airport George Best Belfast City Airport (EGAC)
Time Latitude Longitude Altitude Speed Heading
2026-05-07 15:07 53.33631 -2.85192 86 ft 0 kts 265°
2026-05-07 15:22 53.33632 -2.85184 86 ft 4 kts 265°
2026-05-07 15:22 53.33634 -2.85139 87 ft 4 kts 265°
2026-05-07 15:23 53.33635 -2.85103 89 ft 4 kts 262°
2026-05-07 15:23 53.33642 -2.85074 89 ft 4 kts 185°
2026-05-07 15:23 53.33665 -2.85075 89 ft 2 kts 175°
2026-05-07 15:23 53.33667 -2.85075 89 ft 0 kts 175°
2026-05-07 15:25 53.33666 -2.85075 86 ft 2 kts 175°
2026-05-07 15:25 53.33612 -2.85068 86 ft 13 kts 175°
2026-05-07 15:26 53.33529 -2.85090 86 ft 13 kts 234°
2026-05-07 15:26 53.33516 -2.85261 85 ft 16 kts 265°
2026-05-07 15:26 53.33506 -2.85469 85 ft 19 kts 265°
2026-05-07 15:26 53.33494 -2.85708 87 ft 22 kts 265°
2026-05-07 15:27 53.33484 -2.85979 87 ft 25 kts 265°
2026-05-07 15:27 53.33471 -2.86253 85 ft 23 kts 265°
2026-05-07 15:27 53.33457 -2.86537 81 ft 23 kts 266°
2026-05-07 15:27 53.33436 -2.86694 70 ft 12 kts 228°
2026-05-07 15:28 53.33414 -2.86718 77 ft 0 kts 205°
2026-05-07 15:28 53.33404 -2.86724 75 ft 3 kts 200°
2026-05-07 15:29 53.33340 -2.86717 74 ft 14 kts 156°
2026-05-07 15:29 53.33288 -2.86623 73 ft 11 kts 103°
2026-05-07 15:29 53.33300 -2.86358 73 ft 58 kts 86°
2026-05-07 15:29 53.33359 -2.85011 126 ft 163 kts 88°
2026-05-07 15:30 53.33464 -2.83060 1192 ft 171 kts 90°
2026-05-07 15:30 53.33580 -2.81022 2212 ft 183 kts 90°
2026-05-07 15:30 53.33848 -2.78784 2877 ft 214 kts 71°
2026-05-07 15:30 53.34815 -2.76668 3618 ft 249 kts 39°
2026-05-07 15:31 53.36475 -2.75544 4540 ft 276 kts
2026-05-07 15:31 53.38360 -2.76165 5801 ft 282 kts 329°
2026-05-07 15:31 53.39735 -2.78412 7138 ft 278 kts 295°
2026-05-07 15:31 53.40140 -2.81513 8469 ft 274 kts 262°
2026-05-07 15:32 53.39593 -2.84542 9854 ft 273 kts 245°
2026-05-07 15:32 53.38941 -2.87547 11088 ft 278 kts 249°
2026-05-07 15:32 53.38489 -2.90738 12267 ft 286 kts 257°
2026-05-07 15:32 53.38336 -2.94097 13441 ft 294 kts 266°
2026-05-07 15:33 53.38445 -2.97609 14251 ft 313 kts 269°
2026-05-07 15:33 53.38582 -3.01391 14710 ft 338 kts 272°
2026-05-07 15:33 53.38993 -3.05433 15098 ft 366 kts 281°
2026-05-07 15:33 53.39717 -3.09667 15433 ft 388 kts 281°
2026-05-07 15:34 53.40158 -3.14174 16125 ft 396 kts 277°
2026-05-07 15:34 53.41038 -3.18589 16916 ft 408 kts 297°
2026-05-07 15:34 53.42788 -3.22379 17752 ft 416 kts 312°
2026-05-07 15:34 53.44969 -3.25600 18526 ft 421 kts 319°
2026-05-07 15:35 53.47304 -3.28604 19211 ft 425 kts 321°
2026-05-07 15:35 53.49644 -3.31675 19859 ft 429 kts 319°
2026-05-07 15:35 53.51917 -3.34951 20496 ft 432 kts 316°
2026-05-07 15:35 53.54101 -3.38440 21110 ft 435 kts 313°
2026-05-07 15:36 53.56223 -3.42100 21702 ft 439 kts 311°
2026-05-07 15:36 53.58222 -3.45989 21952 ft 439 kts 304°
2026-05-07 15:36 53.59940 -3.50288 22012 ft 450 kts 301°
2026-05-07 15:36 53.61713 -3.54706 22006 ft 458 kts 302°
2026-05-07 15:37 53.63546 -3.59119 22007 ft 461 kts 303°
2026-05-07 15:37 53.65412 -3.63513 22008 ft 461 kts 304°
2026-05-07 15:37 53.67289 -3.67897 22007 ft 460 kts 303°
2026-05-07 15:37 53.69158 -3.72277 22015 ft 461 kts 303°
2026-05-07 15:38 53.71020 -3.76680 22001 ft 461 kts 303°
2026-05-07 15:38 53.72873 -3.81108 22002 ft 461 kts 303°
2026-05-07 15:38 53.74717 -3.85548 22002 ft 462 kts 302°
2026-05-07 15:38 53.76555 -3.89991 22002 ft 462 kts 302°
2026-05-07 15:39 53.78368 -3.94380 22006 ft 462 kts 302°
2026-05-07 15:39 53.80207 -3.98836 22000 ft 462 kts 302°
2026-05-07 15:39 53.82044 -4.03291 22002 ft 462 kts 302°
2026-05-07 15:39 53.83882 -4.07752 22002 ft 462 kts 302°
2026-05-07 15:40 53.85884 -4.12012 21999 ft 464 kts 310°
2026-05-07 15:40 53.88271 -4.15716 22005 ft 467 kts 320°
2026-05-07 15:40 53.90986 -4.18764 22006 ft 470 kts 329°
2026-05-07 15:40 53.93968 -4.21073 22027 ft 472 kts 336°
2026-05-07 15:41 53.97032 -4.23086 22020 ft 473 kts 336°
2026-05-07 15:41 54.00101 -4.25106 22016 ft 473 kts 336°
2026-05-07 15:41 54.03169 -4.27130 22014 ft 473 kts 336°
2026-05-07 15:41 54.06232 -4.29163 22011 ft 473 kts 336°
2026-05-07 15:42 54.09292 -4.31208 22005 ft 473 kts 336°
2026-05-07 15:42 54.12262 -4.33577 22009 ft 470 kts 328°
2026-05-07 15:42 54.14969 -4.36665 22005 ft 467 kts 319°
2026-05-07 15:42 54.17357 -4.40388 22006 ft 464 kts 310°
2026-05-07 15:43 54.19388 -4.44645 21999 ft 461 kts 302°
2026-05-07 15:43 54.21231 -4.49127 21998 ft 461 kts 302°
2026-05-07 15:43 54.23071 -4.53617 21984 ft 461 kts 302°
2026-05-07 15:43 54.24911 -4.58110 21992 ft 461 kts 302°
2026-05-07 15:44 54.26737 -4.62582 21982 ft 451 kts 302°
2026-05-07 15:44 54.28511 -4.66926 21992 ft 442 kts 302°
2026-05-07 15:44 54.30261 -4.71224 21986 ft 439 kts 302°
2026-05-07 15:44 54.32006 -4.75523 21987 ft 439 kts 302°
2026-05-07 15:45 54.33745 -4.79815 21997 ft 439 kts 301°
2026-05-07 15:45 54.35479 -4.84106 21981 ft 437 kts 301°
2026-05-07 15:45 54.37207 -4.88394 21980 ft 437 kts 301°
2026-05-07 15:45 54.38930 -4.92681 21975 ft 437 kts 301°
2026-05-07 15:46 54.42379 -5.01272 21971 ft 437 kts 301°
2026-05-07 15:46 54.44106 -5.05578 21970 ft 437 kts 301°
2026-05-07 15:46 54.45833 -5.09878 21966 ft 437 kts 301°
2026-05-07 15:47 54.47566 -5.14173 21966 ft 437 kts 301°
2026-05-07 15:47 54.49305 -5.18463 21957 ft 437 kts 301°
2026-05-07 15:47 54.51240 -5.22520 21951 ft 442 kts 313°
2026-05-07 15:47 54.53626 -5.25900 21954 ft 445 kts 319°
2026-05-07 15:48 54.56050 -5.29184 21949 ft 437 kts 319°
2026-05-07 15:48 54.58373 -5.32322 21716 ft 414 kts 319°
2026-05-07 15:48 54.60675 -5.35446 20609 ft 435 kts 318°
2026-05-07 15:48 54.63086 -5.38744 19439 ft 445 kts 318°
2026-05-07 15:49 54.65471 -5.42012 18322 ft 441 kts 318°
2026-05-07 15:49 54.67923 -5.45140 17054 ft 437 kts 326°
2026-05-07 15:49 54.70729 -5.47084 15823 ft 435 kts 344°
2026-05-07 15:49 54.73705 -5.47477 14614 ft 427 kts
2026-05-07 15:50 54.76583 -5.46357 13030 ft 425 kts 20°
2026-05-07 15:50 54.79105 -5.43763 11474 ft 419 kts 40°
2026-05-07 15:50 54.80986 -5.40020 10017 ft 407 kts 59°
2026-05-07 15:50 54.82040 -5.35585 8478 ft 391 kts 79°
2026-05-07 15:51 54.82181 -5.30999 6973 ft 374 kts 99°
2026-05-07 15:51 54.81435 -5.26813 5478 ft 356 kts 121°
2026-05-07 15:51 54.79943 -5.23543 3996 ft 340 kts 142°
2026-05-07 15:51 54.78010 -5.21553 3408 ft 304 kts 161°
2026-05-07 15:52 54.76121 -5.20700 3415 ft 260 kts 175°
2026-05-07 15:52 54.74373 -5.20674 3450 ft 248 kts 189°
2026-05-07 15:52 54.72720 -5.21399 3472 ft 244 kts 203°
2026-05-07 15:52 54.71236 -5.22812 3497 ft 244 kts 216°
2026-05-07 15:53 54.69995 -5.24810 3511 ft 244 kts 229°
2026-05-07 15:53 54.69069 -5.27275 3514 ft 246 kts 243°
2026-05-07 15:53 54.68516 -5.30075 3516 ft 248 kts 255°
2026-05-07 15:53 54.68373 -5.33059 3515 ft 251 kts 269°
2026-05-07 15:54 54.68664 -5.36042 3516 ft 254 kts 283°
2026-05-07 15:54 54.69391 -5.38866 3517 ft 261 kts 298°
2026-05-07 15:54 54.70478 -5.41398 3511 ft 263 kts 304°
2026-05-07 15:54 54.71600 -5.43881 3506 ft 261 kts 303°
2026-05-07 15:55 54.72714 -5.46359 3506 ft 261 kts 303°
2026-05-07 15:55 54.73824 -5.48838 3503 ft 261 kts 303°
2026-05-07 15:55 54.74930 -5.51323 3503 ft 261 kts 303°
2026-05-07 15:55 54.76035 -5.53808 3503 ft 261 kts 303°
2026-05-07 15:56 54.77139 -5.56298 3502 ft 260 kts 302°
2026-05-07 15:56 54.77964 -5.58998 3499 ft 244 kts 284°
2026-05-07 15:56 54.78272 -5.61703 3500 ft 217 kts 268°
2026-05-07 15:56 54.78176 -5.64161 3503 ft 195 kts 255°
2026-05-07 15:57 54.77793 -5.66286 3501 ft 176 kts 242°
2026-05-07 15:57 54.77214 -5.68046 3494 ft 164 kts 232°
2026-05-07 15:57 54.76472 -5.69510 3379 ft 161 kts 221°
2026-05-07 15:57 54.75587 -5.70687 3203 ft 160 kts 214°
2026-05-07 15:58 54.74674 -5.71789 2993 ft 160 kts 215°
2026-05-07 15:58 54.73756 -5.72898 2785 ft 162 kts 215°
2026-05-07 15:58 54.72831 -5.74014 2563 ft 163 kts 214°
2026-05-07 15:58 54.71914 -5.75119 2356 ft 158 kts 214°
2026-05-07 15:59 54.71326 -5.75827 2199 ft 150 kts 214°
2026-05-07 15:59 54.70509 -5.76811 1998 ft 137 kts 214°
2026-05-07 15:59 54.69757 -5.77715 1823 ft 128 kts 214°
2026-05-07 15:59 54.69042 -5.78575 1658 ft 123 kts 213°
2026-05-07 16:00 54.68368 -5.79385 1488 ft 111 kts 213°
2026-05-07 16:00 54.67759 -5.80118 1329 ft 104 kts 212°
2026-05-07 16:00 54.67158 -5.80839 1179 ft 106 kts 213°
2026-05-07 16:00 54.66566 -5.81550 1034 ft 102 kts 212°
2026-05-07 16:01 54.65974 -5.82260 887 ft 106 kts 211°
2026-05-07 16:01 54.65374 -5.82979 745 ft 104 kts 211°
2026-05-07 16:01 54.64775 -5.83697 614 ft 107 kts 213°
2026-05-07 16:01 54.64165 -5.84428 470 ft 106 kts 210°
2026-05-07 16:02 54.63577 -5.85131 325 ft 101 kts 207°
2026-05-07 16:02 54.62999 -5.85826 206 ft 100 kts 210°
2026-05-07 16:02 54.62421 -5.86523 64 ft 102 kts 211°
2026-05-07 16:02 54.61895 -5.87153 19 ft 68 kts 213°
2026-05-07 16:03 54.61616 -5.87484 15 ft 40 kts 215°
2026-05-07 16:03 54.61404 -5.87735 13 ft 22 kts 214°
2026-05-07 16:03 54.61318 -5.87785 15 ft 13 kts 155°
2026-05-07 16:03 54.61261 -5.87659 16 ft 14 kts 111°
2026-05-07 16:04 54.61304 -5.87540 19 ft 14 kts 34°
2026-05-07 16:04 54.61384 -5.87442 21 ft 15 kts 41°
2026-05-07 16:04 54.61459 -5.87310 22 ft 17 kts 35°
2026-05-07 16:04 54.61552 -5.87198 22 ft 5 kts 34°
2026-05-07 16:05 54.61561 -5.87153 22 ft 5 kts 112°
2026-05-07 16:05 54.61540 -5.87102 22 ft 0 kts 125°
2026-05-07 16:05 54.61538 -5.87098 22 ft 0 kts 124°